| time (UTC) | temp C | wind direction | speed KPH | gust KPH | rain 1hr cm | rain 24hr cm | rain mn cm | humidity % | barometer mb |
| 20260504213827 | 24 | 272 | 6.4 | 14.5 | 0.00 | 0.00 | 0.00 | 35 | 1004.2 |
| 20260504213328 | 24 | 251 | 1.6 | 3.2 | 0.00 | 0.00 | 0.00 | 34 | 1004.3 |
| 20260504212827 | 24 | 292 | 3.2 | 6.4 | 0.00 | 0.00 | 0.00 | 37 | 1004.2 |
| 20260504212327 | 23 | 242 | 1.6 | 4.8 | 0.00 | 0.00 | 0.00 | 35 | 1004.2 |
| 20260504211827 | 24 | 234 | 8.0 | 14.5 | 0.00 | 0.00 | 0.00 | 34 | 1004.2 |
| 20260504211327 | 24 | 292 | 3.2 | 6.4 | 0.00 | 0.00 | 0.00 | 36 | 1004.2 |
| 20260504210828 | 24 | 266 | 3.2 | 8.0 | 0.00 | 0.00 | 0.00 | 37 | 1004.1 |
| 20260504210328 | 24 | 283 | 3.2 | 9.7 | 0.00 | 0.00 | 0.00 | 37 | 1004.2 |
| 20260504205828 | 23 | 225 | 6.4 | 19.3 | 0.00 | 0.00 | 0.00 | 37 | 1004.3 |
| 20260504205327 | 23 | 273 | 9.7 | 22.5 | 0.00 | 0.00 | 0.00 | 36 | 1004.3 |
| 20260504204828 | 23 | 239 | 8.0 | 16.1 | 0.00 | 0.00 | 0.00 | 36 | 1004.3 |
| 20260504204327 | 24 | 250 | 3.2 | 9.7 | 0.00 | 0.00 | 0.00 | 37 | 1004.3 |
| 20260504203827 | 25 | 302 | 8.0 | 14.5 | 0.00 | 0.00 | 0.00 | 37 | 1004.3 |
| 20260504203328 | 25 | 280 | 3.2 | 8.0 | 0.00 | 0.00 | 0.00 | 36 | 1004.3 |
| 20260504202827 | 25 | 293 | 3.2 | 6.4 | 0.00 | 0.00 | 0.00 | 38 | 1004.3 |
| 20260504202328 | 24 | 265 | 3.2 | 4.8 | 0.00 | 0.00 | 0.00 | 38 | 1004.5 |
| 20260504201827 | 25 | 283 | 4.8 | 9.7 | 0.00 | 0.00 | 0.00 | 36 | 1004.4 |
| 20260504201329 | 24 | 265 | 3.2 | 8.0 | 0.00 | 0.00 | 0.00 | 36 | 1004.6 |
| 20260504200827 | 24 | 259 | 6.4 | 11.3 | 0.00 | 0.00 | 0.00 | 37 | 1004.6 |
| 20260504200328 | 23 | 21 | 1.6 | 3.2 | 0.00 | 0.00 | 0.00 | 38 | 1004.6 |
| 20260504195827 | 23 | 263 | 4.8 | 9.7 | 0.00 | 0.00 | 0.00 | 39 | 1004.8 |
| 20260504195329 | 23 | 279 | 3.2 | 9.7 | 0.00 | 0.00 | 0.00 | 41 | 1005.0 |
| 20260504194828 | 23 | 253 | 3.2 | 9.7 | 0.00 | 0.00 | 0.00 | 39 | 1005.3 |
| 20260504194329 | 23 | 292 | 6.4 | 8.0 | 0.00 | 0.00 | 0.00 | 40 | 1005.1 |
| 20260504193829 | 23 | 285 | 9.7 | 19.3 | 0.00 | 0.00 | 0.00 | 39 | 1005.0 |
| 20260504193328 | 23 | 263 | 4.8 | 12.9 | 0.00 | 0.00 | 0.00 | 39 | 1005.3 |
| 20260504192415 | 23 | 263 | 3.2 | 6.4 | 0.00 | 0.00 | 0.00 | 41 | 1005.4 |
| 20260504191828 | 23 | 273 | 6.4 | 14.5 | 0.00 | 0.00 | 0.00 | 40 | 1005.1 |
| 20260504191327 | 22 | 237 | 4.8 | 9.7 | 0.00 | 0.00 | 0.00 | 40 | 1005.4 |
| 20260504190829 | 22 | 258 | 6.4 | 12.9 | 0.00 | 0.00 | 0.00 | 44 | 1005.4 |
| 20260504190327 | 22 | 258 | 4.8 | 6.4 | 0.00 | 0.00 | 0.00 | 44 | 1005.7 |
| 20260504185827 | 22 | 301 | 3.2 | 8.0 | 0.00 | 0.00 | 0.00 | 42 | 1005.9 |
| 20260504185328 | 22 | 266 | 1.6 | 4.8 | 0.00 | 0.00 | 0.00 | 43 | 1005.7 |
| 20260504184828 | 22 | 235 | 11.3 | 17.7 | 0.00 | 0.00 | 0.00 | 41 | 1005.6 |
| 20260504184327 | 22 | 260 | 4.8 | 11.3 | 0.00 | 0.00 | 0.00 | 43 | 1006.2 |
| 20260504183827 | 22 | 268 | 6.4 | 16.1 | 0.00 | 0.00 | 0.00 | 42 | 1005.8 |
| 20260504183328 | 22 | 260 | 6.4 | 11.3 | 0.00 | 0.00 | 0.00 | 42 | 1005.8 |
| 20260504182829 | 23 | 258 | 8.0 | 25.7 | 0.00 | 0.00 | 0.00 | 42 | 1005.7 |
| 20260504182331 | 22 | 263 | 6.4 | 11.3 | 0.00 | 0.00 | 0.00 | 43 | 1005.7 |
| 20260504181827 | 22 | 255 | 6.4 | 12.9 | 0.00 | 0.00 | 0.00 | 44 | 1005.8 |
| 20260504181328 | 22 | 244 | 6.4 | 11.3 | 0.00 | 0.00 | 0.00 | 42 | 1005.7 |
| 20260504180827 | 22 | 247 | 4.8 | 8.0 | 0.00 | 0.00 | 0.00 | 43 | 1006.3 |
| 20260504180328 | 22 | 259 | 9.7 | 16.1 | 0.00 | 0.00 | 0.00 | 43 | 1005.7 |
| 20260504175827 | 22 | 271 | 6.4 | 11.3 | 0.00 | 0.00 | 0.00 | 43 | 1005.9 |
| 20260504175327 | 22 | 259 | 6.4 | 12.9 | 0.00 | 0.00 | 0.00 | 43 | 1005.9 |
| 20260504174828 | 22 | 256 | 3.2 | 8.0 | 0.00 | 0.00 | 0.00 | 44 | 1005.9 |
| 20260504174330 | 22 | 275 | 8.0 | 14.5 | 0.00 | 0.00 | 0.00 | 43 | 1006.0 |
| 20260504173827 | 22 | 249 | 4.8 | 12.9 | 0.00 | 0.00 | 0.00 | 44 | 1005.8 |
| 20260504173327 | 21 | 243 | 3.2 | 9.7 | 0.00 | 0.00 | 0.00 | 44 | 1006.1 |
| 20260504172827 | 21 | 288 | 4.8 | 9.7 | 0.00 | 0.00 | 0.00 | 46 | 1005.9 |
| 20260504172330 | 21 | 264 | 9.7 | 20.9 | 0.00 | 0.00 | 0.00 | 43 | 1005.8 |
| 20260504171827 | 21 | 263 | 6.4 | 11.3 | 0.00 | 0.00 | 0.00 | 45 | 1006.0 |
| 20260504171329 | 21 | 248 | 4.8 | 12.9 | 0.00 | 0.00 | 0.00 | 44 | 1006.4 |
| 20260504170827 | 21 | 257 | 8.0 | 14.5 | 0.00 | 0.00 | 0.00 | 43 | 1006.1 |
| 20260504170328 | 21 | 293 | 4.8 | 12.9 | 0.00 | 0.00 | 0.00 | 43 | 1005.8 |
| 20260504160328 | 20 | 274 | 4.8 | 9.7 | 0.00 | 0.00 | 0.00 | 47 | 1006.4 |
| 20260504150828 | 17 | 241 | 8.0 | 14.5 | 0.00 | 0.00 | 0.00 | 49 | 1006.8 |
| 20260504150328 | 17 | 241 | 3.2 | 8.0 | 0.00 | 0.00 | 0.00 | 51 | 1007.4 |
| 20260504141328 | 15 | 262 | 3.2 | 8.0 | 0.00 | 0.00 | 0.00 | 53 | 1006.9 |
| 20260504140828 | 15 | 217 | 3.2 | 8.0 | 0.00 | 0.00 | 0.00 | 52 | 1007.4 |
| 20260504140327 | 15 | 262 | 9.7 | 17.7 | 0.00 | 0.00 | 0.00 | 49 | 1007.3 |
| 20260504110327 | 11 | 212 | 3.2 | 3.2 | 0.00 | 0.00 | 0.00 | 57 | 1007.8 |
| 20260504100328 | 10 | 256 | 3.2 | 3.2 | 0.00 | 0.00 | 0.00 | 55 | 1008.1 |
| 20260504081827 | 10 | 227 | 3.2 | 3.2 | 0.00 | 0.00 | 0.00 | 56 | 1008.7 |
| 20260504081330 | 10 | 352 | 1.6 | 1.6 | 0.00 | 0.00 | 0.00 | 55 | 1008.7 |
| 20260504080827 | 10 | 238 | 3.2 | 4.8 | 0.00 | 0.00 | 0.00 | 56 | 1008.8 |
| 20260504080327 | 10 | 306 | 0.0 | 3.2 | 0.00 | 0.00 | 0.00 | 56 | 1008.7 |
| 20260504070327 | 11 | 4 | 1.6 | 3.2 | 0.00 | 0.00 | 0.00 | 53 | 1008.8 |
| 20260504050327 | 11 | 141 | 0.0 | 1.6 | 0.00 | 0.00 | 0.00 | 58 | 1009.0 |
| 20260504045828 | 11 | 174 | 0.0 | 1.6 | 0.00 | 0.00 | 0.00 | 59 | 1009.0 |
| 20260504045327 | 10 | 128 | 0.0 | 1.6 | 0.00 | 0.00 | 0.00 | 58 | 1009.0 |
| 20260504044827 | 10 | 13 | 0.0 | 3.2 | 0.00 | 0.00 | 0.00 | 61 | 1009.0 |
| 20260504044329 | 10 | 210 | 0.0 | 3.2 | 0.00 | 0.00 | 0.00 | 60 | 1009.1 |
| 20260504043827 | 10 | 327 | 1.6 | 3.2 | 0.00 | 0.00 | 0.00 | 61 | 1009.1 |
| 20260504043327 | 10 | 11 | 1.6 | 1.6 | 0.00 | 0.00 | 0.00 | 59 | 1009.1 |
| 20260504042828 | 10 | 54 | 1.6 | 1.6 | 0.00 | 0.00 | 0.00 | 61 | 1009.1 |
| 20260504042327 | 10 | 289 | 1.6 | 1.6 | 0.00 | 0.00 | 0.00 | 61 | 1009.1 |
| 20260504041827 | 10 | 264 | 0.0 | 1.6 | 0.00 | 0.00 | 0.00 | 63 | 1009.2 |
| 20260504041327 | 10 | 210 | 1.6 | 3.2 | 0.00 | 0.00 | 0.00 | 64 | 1009.2 |
| 20260504040827 | 10 | 231 | 0.0 | 1.6 | 0.00 | 0.00 | 0.00 | 65 | 1009.2 |
| 20260504040327 | 10 | 228 | 0.0 | 1.6 | 0.00 | 0.00 | 0.00 | 67 | 1009.4 |
| 20260504035827 | 10 | 239 | 0.0 | 1.6 | 0.00 | 0.00 | 0.03 | 66 | 1009.4 |
| 20260504035327 | 10 | 261 | 0.0 | 1.6 | 0.00 | 0.00 | 0.03 | 66 | 1009.4 |
| 20260504034827 | 10 | 255 | 1.6 | 3.2 | 0.00 | 0.00 | 0.03 | 70 | 1009.5 |
| 20260504034327 | 10 | 243 | 1.6 | 1.6 | 0.00 | 0.00 | 0.03 | 67 | 1009.5 |
| 20260504033827 | 10 | 168 | 0.0 | 1.6 | 0.00 | 0.00 | 0.03 | 68 | 1009.6 |
| 20260504033328 | 10 | 207 | 1.6 | 1.6 | 0.00 | 0.00 | 0.03 | 67 | 1009.8 |
| 20260504032827 | 10 | 264 | 0.0 | 1.6 | 0.00 | 0.00 | 0.03 | 69 | 1009.7 |
| 20260504032327 | 10 | 329 | 0.0 | 1.6 | 0.00 | 0.00 | 0.03 | 68 | 1009.7 |
| 20260504031828 | 10 | 10 | 0.0 | 0.0 | 0.00 | 0.00 | 0.03 | 69 | 1009.7 |
| 20260504031327 | 10 | 250 | 0.0 | 1.6 | 0.00 | 0.00 | 0.03 | 69 | 1009.7 |
| 20260504030827 | 10 | 291 | 0.0 | 1.6 | 0.00 | 0.00 | 0.03 | 68 | 1009.8 |
| 20260504030327 | 10 | 237 | 0.0 | 1.6 | 0.03 | 0.00 | 0.03 | 68 | 1009.8 |
| 20260504025827 | 10 | 238 | 0.0 | 1.6 | 0.03 | 0.00 | 0.03 | 69 | 1009.9 |
| 20260504025327 | 10 | 185 | 0.0 | 1.6 | 0.03 | 0.00 | 0.03 | 68 | 1009.9 |
| 20260504024827 | 10 | 142 | 0.0 | 1.6 | 0.03 | 0.00 | 0.03 | 67 | 1010.0 |
| 20260504024327 | 10 | 240 | 1.6 | 3.2 | 0.03 | 0.00 | 0.03 | 66 | 1010.0 |
| 20260504023827 | 10 | 264 | 0.0 | 3.2 | 0.03 | 0.00 | 0.03 | 66 | 1010.1 |
| 20260504023327 | 10 | 248 | 3.2 | 9.7 | 0.03 | 0.00 | 0.03 | 67 | 1010.2 |
| 20260504022827 | 10 | 257 | 1.6 | 3.2 | 0.03 | 0.00 | 0.03 | 67 | 1010.3 |
| 20260504022327 | 10 | 248 | 3.2 | 4.8 | 0.03 | 0.00 | 0.03 | 67 | 1010.4 |
| 20260504021829 | 10 | 254 | 3.2 | 9.7 | 0.03 | 0.00 | 0.03 | 68 | 1010.5 |
| 20260504021327 | 10 | 258 | 6.4 | 14.5 | 0.03 | 0.00 | 0.03 | 70 | 1010.6 |
| 20260504020827 | 10 | 226 | 3.2 | 6.4 | 0.00 | 0.00 | 0.03 | 70 | 1010.8 |
| 20260504020328 | 11 | 287 | 3.2 | 8.0 | 0.00 | 0.00 | 0.00 | 69 | 1011.1 |
| 20260504015827 | 11 | 268 | 4.8 | 9.7 | 0.00 | 0.00 | 0.00 | 66 | 1011.2 |
| 20260504015328 | 11 | 353 | 3.2 | 4.8 | 0.00 | 0.00 | 0.00 | 60 | 1011.2 |
| 20260504014827 | 12 | 229 | 3.2 | 6.4 | 0.00 | 0.00 | 0.00 | 57 | 1010.8 |
| 20260504014327 | 12 | 265 | 8.0 | 14.5 | 0.00 | 0.00 | 0.00 | 56 | 1010.5 |
| 20260504013827 | 12 | 256 | 3.2 | 4.8 | 0.00 | 0.00 | 0.00 | 55 | 1010.5 |
| 20260504013328 | 12 | 280 | 3.2 | 6.4 | 0.00 | 0.00 | 0.00 | 54 | 1010.4 |
| 20260504012828 | 12 | 353 | 3.2 | 6.4 | 0.00 | 0.00 | 0.00 | 53 | 1010.2 |
| 20260504012328 | 12 | 272 | 3.2 | 6.4 | 0.00 | 0.00 | 0.00 | 52 | 1010.2 |
| 20260504011827 | 12 | 268 | 4.8 | 11.3 | 0.00 | 0.00 | 0.00 | 52 | 1010.1 |
| 20260504011327 | 12 | 251 | 4.8 | 6.4 | 0.00 | 0.00 | 0.00 | 51 | 1010.0 |
| 20260504010827 | 12 | 261 | 8.0 | 14.5 | 0.00 | 0.00 | 0.00 | 50 | 1009.9 |
| 20260504010327 | 12 | 279 | 3.2 | 8.0 | 0.00 | 0.00 | 0.00 | 50 | 1009.9 |
| 20260504005827 | 12 | 225 | 8.0 | 12.9 | 0.00 | 0.00 | 0.00 | 49 | 1009.7 |
| 20260504005328 | 12 | 263 | 3.2 | 9.7 | 0.00 | 0.00 | 0.00 | 50 | 1009.7 |
| 20260504004827 | 12 | 253 | 8.0 | 17.7 | 0.00 | 0.00 | 0.00 | 50 | 1009.7 |
| 20260504004327 | 11 | 244 | 0.0 | 3.2 | 0.00 | 0.00 | 0.00 | 54 | 1009.8 |
| 20260504003827 | 11 | 282 | 1.6 | 3.2 | 0.00 | 0.00 | 0.00 | 51 | 1009.5 |
| 20260504003327 | 11 | 283 | 3.2 | 8.0 | 0.00 | 0.00 | 0.00 | 55 | 1009.7 |
| 20260504002828 | 11 | 159 | 0.0 | 3.2 | 0.00 | 0.00 | 0.00 | 55 | 1009.7 |
| 20260504002328 | 11 | 20 | 1.6 | 3.2 | 0.00 | 0.00 | 0.00 | 57 | 1009.6 |
| 20260504001827 | 11 | 302 | 1.6 | 3.2 | 0.00 | 0.00 | 0.00 | 58 | 1009.6 |
| 20260504001327 | 11 | 176 | 1.6 | 1.6 | 0.00 | 0.00 | 0.00 | 55 | 1009.6 |
| 20260504000827 | 11 | 217 | 0.0 | 1.6 | 0.00 | 0.00 | 0.00 | 56 | 1009.7 |
| 20260504000327 | 11 | 265 | 1.6 | 1.6 | 0.00 | 0.00 | 0.00 | 54 | 1009.7 |
| 20260503235827 | 11 | 35 | 0.0 | 1.6 | 0.00 | 0.00 | 0.00 | 54 | 1009.6 |
| 20260503235327 | 11 | 221 | 4.8 | 8.0 | 0.00 | 0.00 | 0.00 | 52 | 1009.7 |
| 20260503234827 | 12 | 354 | 1.6 | 3.2 | 0.00 | 0.00 | 0.00 | 52 | 1009.8 |
| 20260503234327 | 12 | 263 | 3.2 | 8.0 | 0.00 | 0.00 | 0.00 | 51 | 1009.9 |
| 20260503233827 | 12 | 230 | 4.8 | 8.0 | 0.00 | 0.00 | 0.00 | 51 | 1009.9 |
| 20260503233327 | 12 | 218 | 3.2 | 6.4 | 0.00 | 0.00 | 0.00 | 50 | 1010.1 |
| 20260503232827 | 12 | 265 | 6.4 | 12.9 | 0.00 | 0.00 | 0.00 | 49 | 1010.0 |
| 20260503232327 | 12 | 266 | 6.4 | 12.9 | 0.00 | 0.00 | 0.00 | 47 | 1009.9 |
| 20260503231827 | 12 | 11 | 3.2 | 4.8 | 0.00 | 0.00 | 0.00 | 48 | 1009.9 |
| 20260503231328 | 12 | 40 | 3.2 | 6.4 | 0.00 | 0.00 | 0.00 | 48 | 1009.8 |
| 20260503230827 | 12 | 288 | 3.2 | 4.8 | 0.00 | 0.00 | 0.00 | 48 | 1009.9 |
| 20260503230327 | 12 | 247 | 1.6 | 4.8 | 0.00 | 0.00 | 0.00 | 47 | 1009.8 |
| 20260503225827 | 12 | 265 | 1.6 | 3.2 | 0.00 | 0.00 | 0.00 | 48 | 1009.7 |
| 20260503225327 | 12 | 287 | 3.2 | 6.4 | 0.00 | 0.00 | 0.00 | 46 | 1009.6 |
| 20260503224827 | 12 | 273 | 3.2 | 6.4 | 0.00 | 0.00 | 0.00 | 46 | 1009.6 |
| 20260503224327 | 12 | 277 | 1.6 | 4.8 | 0.00 | 0.00 | 0.00 | 47 | 1009.5 |
| 20260503223828 | 13 | 265 | 3.2 | 8.0 | 0.00 | 0.00 | 0.00 | 46 | 1009.5 |
| 20260503223327 | 13 | 193 | 1.6 | 3.2 | 0.00 | 0.00 | 0.00 | 45 | 1009.6 |
| 20260503222827 | 13 | 0 | 0.0 | 1.6 | 0.00 | 0.00 | 0.00 | 44 | 1009.5 |
| 20260503222327 | 13 | 255 | 3.2 | 9.7 | 0.00 | 0.00 | 0.00 | 47 | 1009.4 |
| 20260503221827 | 13 | 290 | 3.2 | 3.2 | 0.00 | 0.00 | 0.00 | 45 | 1009.4 |
| 20260503221327 | 12 | 210 | 6.4 | 12.9 | 0.00 | 0.00 | 0.00 | 46 | 1009.5 |
| 20260503220827 | 12 | 261 | 1.6 | 3.2 | 0.00 | 0.00 | 0.00 | 46 | 1009.7 |
| 20260503220327 | 12 | 260 | 1.6 | 4.8 | 0.00 | 0.00 | 0.00 | 47 | 1009.7 |
| 20260503215829 | 13 | 237 | 3.2 | 6.4 | 0.00 | 0.00 | 0.00 | 48 | 1009.7 |
| 20260503215327 | 13 | 327 | 1.6 | 3.2 | 0.00 | 0.00 | 0.00 | 47 | 1009.7 |
| 20260503214827 | 13 | 297 | 3.2 | 4.8 | 0.00 | 0.00 | 0.00 | 47 | 1009.6 |
| 20260503214328 | 13 | 240 | 6.4 | 9.7 | 0.00 | 0.00 | 0.00 | 46 | 1009.6 |